status,avgMeasuredTime,avgSpeed,extID,medianMeasuredTime,TIMESTAMP,vehicleCount,_id,REPORT_ID
OK,143,18,837,143,2014-08-01T07:55:00,7,20746561,187642
OK,139,18,837,139,2014-08-01T08:00:00,5,20746892,187642
OK,150,17,837,150,2014-08-01T08:05:00,3,20747341,187642
OK,130,20,837,130,2014-08-01T08:10:00,2,20747714,187642
OK,130,20,837,130,2014-08-01T08:15:00,1,20748163,187642
OK,123,21,837,123,2014-08-01T08:20:00,3,20748612,187642
OK,108,24,837,108,2014-08-01T08:25:00,2,20749061,187642
OK,131,20,837,131,2014-08-01T08:30:00,2,20749510,187642
OK,114,23,837,114,2014-08-01T08:35:00,2,20749959,187642
OK,102,25,837,102,2014-08-01T08:40:00,2,20750408,187642
OK,140,18,837,140,2014-08-01T08:45:00,3,20750857,187642
OK,140,18,837,140,2014-08-01T08:50:00,5,20751306,187642
OK,159,16,837,159,2014-08-01T08:55:00,2,20751755,187642
OK,165,15,837,165,2014-08-01T09:00:00,0,20752204,187642
OK,165,15,837,165,2014-08-01T09:05:00,0,20752653,187642
OK,95,27,837,95,2014-08-01T09:10:00,3,20753102,187642
OK,95,27,837,95,2014-08-01T09:15:00,3,20753551,187642
OK,113,23,837,113,2014-08-01T09:20:00,4,20754000,187642
OK,114,23,837,114,2014-08-01T09:25:00,5,20754449,187642
OK,160,16,837,160,2014-08-01T09:30:00,4,20754898,187642
OK,154,17,837,154,2014-08-01T09:35:00,4,20755347,187642
OK,141,18,837,141,2014-08-01T09:40:00,3,20755796,187642
OK,121,21,837,121,2014-08-01T09:45:00,3,20756245,187642
OK,133,19,837,133,2014-08-01T09:50:00,2,20756694,187642
OK,154,17,837,154,2014-08-01T09:55:00,3,20757143,187642
OK,129,20,837,129,2014-08-01T10:00:00,3,20757592,187642
OK,142,18,837,142,2014-08-01T10:05:00,4,20758041,187642
OK,156,16,837,156,2014-08-01T10:10:00,3,20758490,187642
OK,173,15,837,173,2014-08-01T10:15:00,2,20758939,187642
OK,173,15,837,173,2014-08-01T10:20:00,2,20759388,187642
OK,171,15,837,171,2014-08-01T10:25:00,2,20759837,187642
OK,161,16,837,161,2014-08-01T10:30:00,3,20760286,187642
OK,127,20,837,127,2014-08-01T10:35:00,1,20760735,187642
OK,99,26,837,99,2014-08-01T10:40:00,1,20761184,187642
OK,99,26,837,99,2014-08-01T10:45:00,1,20761633,187642
OK,129,20,837,129,2014-08-01T10:50:00,1,20762082,187642
OK,108,24,837,108,2014-08-01T10:55:00,4,20762531,187642
OK,107,24,837,107,2014-08-01T11:00:00,2,20762980,187642
OK,150,17,837,150,2014-08-01T11:05:00,1,20763429,187642
OK,123,21,837,123,2014-08-01T11:10:00,1,20763878,187642
OK,123,21,837,123,2014-08-01T11:15:00,1,20764326,187642
OK,119,22,837,119,2014-08-01T11:20:00,1,20764775,187642
OK,100,26,837,100,2014-08-01T11:25:00,2,20765224,187642
OK,82,32,837,82,2014-08-01T11:30:00,1,20765673,187642
OK,137,19,837,137,2014-08-01T11:35:00,1,20766122,187642
OK,156,16,837,156,2014-08-01T11:40:00,2,20766571,187642
OK,118,22,837,118,2014-08-01T11:45:00,3,20767020,187642
OK,114,23,837,114,2014-08-01T11:50:00,2,20767469,187642
OK,119,22,837,119,2014-08-01T11:55:00,3,20767918,187642
OK,125,21,837,125,2014-08-01T12:00:00,4,20768367,187642
OK,149,17,837,149,2014-08-01T12:05:00,3,20768816,187642
OK,115,22,837,115,2014-08-01T12:10:00,3,20769265,187642
OK,115,22,837,115,2014-08-01T12:15:00,3,20769714,187642
OK,132,19,837,132,2014-08-01T12:20:00,2,20770163,187642
OK,107,24,837,107,2014-08-01T12:25:00,0,20770612,187642
OK,107,24,837,107,2014-08-01T12:30:00,0,20771061,187642
OK,151,17,837,151,2014-08-01T12:35:00,1,20771510,187642
OK,184,14,837,184,2014-08-01T12:40:00,1,20771959,187642
OK,148,17,837,148,2014-08-01T12:45:00,6,20772408,187642
OK,121,21,837,121,2014-08-01T12:50:00,6,20772857,187642
OK,80,32,837,80,2014-08-01T12:55:00,4,20773306,187642
OK,103,25,837,103,2014-08-01T13:00:00,2,20773755,187642
OK,184,14,837,184,2014-08-01T13:05:00,1,20774204,187642
OK,184,14,837,184,2014-08-01T13:10:00,1,20774653,187642
OK,154,17,837,154,2014-08-01T13:15:00,1,20775102,187642
OK,121,21,837,121,2014-08-01T13:20:00,3,20775551,187642
OK,121,21,837,121,2014-08-01T13:25:00,5,20776000,187642
OK,148,17,837,148,2014-08-01T13:30:00,3,20776449,187642
OK,151,17,837,151,2014-08-01T13:35:00,2,20776898,187642
OK,116,22,837,116,2014-08-01T13:40:00,3,20777347,187642
OK,126,20,837,126,2014-08-01T13:45:00,2,20777796,187642
OK,125,21,837,125,2014-08-01T13:50:00,2,20778245,187642
OK,92,28,837,92,2014-08-01T13:55:00,2,20778694,187642
OK,106,24,837,106,2014-08-01T14:00:00,1,20779143,187642
OK,145,18,837,145,2014-08-01T14:05:00,1,20779592,187642
OK,145,18,837,145,2014-08-01T14:10:00,1,20780041,187642
OK,145,18,837,145,2014-08-01T14:15:00,0,20780490,187642
OK,145,18,837,145,2014-08-01T14:20:00,0,20780939,187642
OK,208,12,837,208,2014-08-01T14:25:00,1,20781388,187642
OK,158,16,837,158,2014-08-01T14:30:00,2,20781837,187642
OK,76,34,837,76,2014-08-01T14:35:00,3,20782286,187642
OK,64,41,837,64,2014-08-01T14:40:00,2,20782735,187642
OK,52,50,837,52,2014-08-01T14:45:00,1,20783184,187642
OK,52,50,837,52,2014-08-01T14:50:00,0,20783633,187642
OK,91,28,837,91,2014-08-01T14:55:00,3,20784082,187642
OK,91,28,837,91,2014-08-01T15:00:00,3,20784531,187642
OK,101,26,837,101,2014-08-01T15:05:00,1,20784980,187642
OK,101,26,837,101,2014-08-01T15:10:00,3,20785429,187642
OK,117,22,837,117,2014-08-01T15:15:00,3,20785878,187642
OK,117,22,837,117,2014-08-01T15:20:00,1,20786327,187642
OK,117,22,837,117,2014-08-01T15:25:00,0,20786776,187642
OK,117,22,837,117,2014-08-01T15:30:00,0,20787225,187642
OK,120,21,837,120,2014-08-01T15:35:00,2,20787674,187642
OK,157,16,837,157,2014-08-01T15:40:00,4,20788123,187642
OK,161,16,837,161,2014-08-01T15:45:00,4,20788572,187642
OK,138,19,837,138,2014-08-01T15:50:00,2,20789021,187642
OK,94,27,837,94,2014-08-01T15:55:00,1,20789470,187642
OK,94,27,837,94,2014-08-01T16:00:00,1,20789919,187642
OK,94,27,837,94,2014-08-01T16:05:00,0,20790368,187642
OK,152,17,837,152,2014-08-01T16:10:00,1,20790817,187642
OK,120,21,837,120,2014-08-01T16:15:00,2,20791266,187642
OK,121,21,837,121,2014-08-01T16:20:00,2,20791715,187642
OK,119,22,837,119,2014-08-01T16:25:00,2,20792164,187642
OK,100,26,837,100,2014-08-01T16:30:00,3,20792613,187642
OK,100,26,837,100,2014-08-01T16:35:00,3,20793062,187642
OK,70,37,837,70,2014-08-01T16:40:00,1,20793511,187642
OK,137,19,837,137,2014-08-01T16:45:00,1,20793960,187642
OK,137,19,837,137,2014-08-01T16:50:00,1,20794409,187642
OK,137,19,837,137,2014-08-01T16:55:00,0,20794858,187642
OK,128,20,837,128,2014-08-01T17:00:00,1,20795307,187642
OK,128,20,837,128,2014-08-01T17:05:00,1,20795756,187642
OK,128,20,837,128,2014-08-01T17:10:00,0,20796205,187642
OK,128,20,837,128,2014-08-01T17:15:00,0,20796654,187642
OK,93,28,837,93,2014-08-01T17:20:00,1,20797103,187642
OK,93,28,837,93,2014-08-01T17:25:00,1,20797552,187642
OK,93,28,837,93,2014-08-01T17:30:00,0,20798001,187642
OK,67,39,837,67,2014-08-01T17:35:00,1,20798450,187642
OK,115,22,837,115,2014-08-01T17:40:00,2,20798899,187642
OK,163,16,837,163,2014-08-01T17:45:00,1,20799348,187642
OK,163,16,837,163,2014-08-01T17:50:00,0,20799797,187642
OK,163,16,837,163,2014-08-01T17:55:00,0,20800246,187642
OK,163,16,837,163,2014-08-01T18:00:00,0,20800695,187642
OK,163,16,837,163,2014-08-01T18:05:00,0,20801144,187642
OK,130,20,837,130,2014-08-01T18:10:00,2,20801593,187642
OK,130,20,837,130,2014-08-01T18:15:00,2,20802042,187642
OK,130,20,837,130,2014-08-01T18:20:00,0,20802491,187642
OK,109,24,837,109,2014-08-01T18:25:00,1,20802940,187642
OK,107,24,837,107,2014-08-01T18:30:00,3,20803389,187642
OK,106,24,837,106,2014-08-01T18:35:00,2,20803838,187642
OK,86,30,837,86,2014-08-01T18:40:00,1,20804287,187642
OK,86,30,837,86,2014-08-01T18:45:00,1,20804736,187642
OK,86,30,837,86,2014-08-01T18:50:00,0,20805185,187642
OK,86,30,837,86,2014-08-01T18:55:00,0,20805634,187642
OK,151,17,837,151,2014-08-01T19:00:00,2,20806083,187642
OK,152,17,837,152,2014-08-01T19:05:00,1,20806532,187642
OK,58,45,837,58,2014-08-01T19:10:00,1,20806981,187642
OK,58,45,837,58,2014-08-01T19:15:00,0,20807430,187642
OK,99,26,837,99,2014-08-01T19:20:00,3,20807879,187642
OK,131,20,837,131,2014-08-01T19:25:00,1,20808328,187642
OK,131,20,837,131,2014-08-01T19:30:00,0,20808777,187642
OK,59,44,837,59,2014-08-01T19:35:00,1,20809226,187642
OK,59,44,837,59,2014-08-01T19:40:00,1,20809675,187642
OK,143,18,837,143,2014-08-01T19:45:00,1,20810124,187642
OK,143,18,837,143,2014-08-01T19:50:00,1,20810573,187642
OK,81,32,837,81,2014-08-01T19:55:00,1,20811022,187642
OK,107,24,837,107,2014-08-01T22:00:00,0,20816751,187642
OK,106,24,837,106,2014-08-01T22:05:00,0,20817200,187642
OK,94,27,837,94,2014-08-02T00:00:00,0,20823190,187642
OK,94,27,837,94,2014-08-02T00:05:00,0,20823639,187642
OK,167,15,837,167,2014-08-02T00:10:00,2,20824088,187642
OK,167,15,837,167,2014-08-02T00:15:00,2,20824537,187642
OK,237,11,837,237,2014-08-02T00:20:00,0,20824986,187642
OK,237,11,837,237,2014-08-02T00:25:00,0,20825435,187642
OK,237,11,837,237,2014-08-02T00:30:00,0,20825884,187642
OK,237,11,837,237,2014-08-02T00:35:00,0,20826333,187642
OK,237,11,837,237,2014-08-02T00:40:00,0,20826782,187642
OK,237,11,837,237,2014-08-02T00:45:00,0,20827231,187642
OK,237,11,837,237,2014-08-02T00:50:00,0,20827680,187642
OK,237,11,837,237,2014-08-02T00:55:00,0,20828129,187642
OK,119,22,837,119,2014-08-02T01:00:00,1,20828578,187642
OK,119,22,837,119,2014-08-02T01:05:00,0,20829027,187642
OK,119,22,837,119,2014-08-02T01:10:00,0,20829476,187642
OK,119,22,837,119,2014-08-02T01:15:00,0,20829925,187642
OK,119,22,837,119,2014-08-02T01:20:00,0,20830374,187642
OK,119,22,837,119,2014-08-02T01:25:00,0,20830823,187642
OK,119,22,837,119,2014-08-02T01:30:00,0,20831272,187642
OK,108,24,837,108,2014-08-02T01:35:00,1,20831721,187642
OK,108,24,837,108,2014-08-02T01:40:00,1,20832170,187642
OK,108,24,837,108,2014-08-02T01:45:00,0,20832619,187642
OK,93,28,837,93,2014-08-02T01:50:00,1,20833068,187642
OK,93,28,837,93,2014-08-02T01:55:00,1,20833517,187642
OK,93,28,837,93,2014-08-02T02:00:00,0,20833966,187642
OK,93,28,837,93,2014-08-02T02:05:00,0,20834415,187642
OK,68,38,837,68,2014-08-02T02:10:00,1,20834864,187642
OK,68,38,837,68,2014-08-02T02:15:00,0,20835313,187642
OK,68,38,837,68,2014-08-02T02:20:00,0,20835762,187642
OK,68,38,837,68,2014-08-02T02:25:00,0,20836211,187642
OK,68,38,837,68,2014-08-02T02:30:00,0,20836660,187642
OK,68,38,837,68,2014-08-02T02:35:00,0,20837109,187642
OK,68,38,837,68,2014-08-02T02:40:00,0,20837558,187642
OK,68,38,837,68,2014-08-02T02:45:00,0,20838007,187642
OK,68,38,837,68,2014-08-02T02:50:00,0,20838456,187642
OK,68,38,837,68,2014-08-02T02:55:00,0,20838905,187642
OK,105,25,837,105,2014-08-02T03:00:00,1,20839354,187642
OK,105,25,837,105,2014-08-02T03:05:00,1,20839803,187642
OK,105,25,837,105,2014-08-02T03:10:00,0,20840252,187642
OK,105,25,837,105,2014-08-02T03:15:00,0,20840701,187642
OK,105,25,837,105,2014-08-02T03:20:00,0,20841150,187642
OK,105,25,837,105,2014-08-02T03:25:00,0,20841599,187642
OK,105,25,837,105,2014-08-02T03:30:00,0,20842048,187642
OK,105,25,837,105,2014-08-02T03:35:00,0,20842497,187642
OK,61,43,837,61,2014-08-02T03:40:00,1,20842946,187642
OK,61,43,837,61,2014-08-02T03:45:00,0,20843395,187642
OK,61,43,837,61,2014-08-02T03:50:00,0,20843844,187642
OK,61,43,837,61,2014-08-02T03:55:00,0,20844293,187642
OK,158,16,837,158,2014-08-02T04:50:00,1,20848004,187642
OK,158,16,837,158,2014-08-02T06:00:00,0,20851747,187642
OK,141,18,837,141,2014-08-02T06:05:00,1,20852196,187642
OK,141,18,837,141,2014-08-02T06:10:00,1,20852645,187642
OK,141,18,837,141,2014-08-02T06:15:00,0,20853094,187642
OK,141,18,837,141,2014-08-02T06:20:00,0,20853543,187642
OK,72,36,837,72,2014-08-02T06:25:00,1,20853992,187642
OK,72,36,837,72,2014-08-02T06:30:00,1,20854441,187642
OK,72,36,837,72,2014-08-02T06:35:00,0,20854890,187642
OK,169,15,837,169,2014-08-02T06:40:00,1,20855339,187642
OK,169,15,837,169,2014-08-02T06:45:00,1,20855788,187642
OK,169,15,837,169,2014-08-02T06:50:00,0,20856237,187642
OK,169,15,837,169,2014-08-02T06:55:00,0,20856686,187642
OK,169,15,837,169,2014-08-02T07:00:00,0,20857135,187642
OK,169,15,837,169,2014-08-02T07:05:00,0,20857584,187642
OK,52,50,837,52,2014-08-02T07:10:00,1,20858033,187642
OK,52,50,837,52,2014-08-02T07:15:00,1,20858482,187642
OK,52,50,837,52,2014-08-02T07:20:00,0,20858931,187642
OK,52,50,837,52,2014-08-02T07:25:00,0,20859380,187642
OK,52,50,837,52,2014-08-02T07:30:00,0,20859829,187642
OK,126,20,837,126,2014-08-02T07:35:00,2,20860278,187642
OK,141,18,837,141,2014-08-02T07:40:00,2,20860727,187642
OK,143,18,837,143,2014-08-02T07:45:00,2,20861176,187642
OK,141,18,837,141,2014-08-02T07:50:00,4,20861625,187642
OK,141,18,837,141,2014-08-02T07:55:00,2,20862074,187642
OK,141,18,837,141,2014-08-02T08:00:00,0,20862523,187642
OK,98,26,837,98,2014-08-02T08:05:00,2,20862972,187642
OK,98,26,837,98,2014-08-02T08:10:00,4,20863421,187642
OK,95,27,837,95,2014-08-02T08:15:00,5,20863870,187642
OK,96,27,837,96,2014-08-02T08:20:00,5,20864319,187642
OK,135,19,837,135,2014-08-02T08:25:00,2,20864768,187642
OK,161,16,837,161,2014-08-02T08:30:00,3,20865217,187642
OK,157,16,837,157,2014-08-02T08:35:00,4,20865666,187642
OK,121,21,837,121,2014-08-02T08:40:00,2,20866115,187642
OK,112,23,837,112,2014-08-02T08:45:00,4,20866564,187642
OK,125,21,837,125,2014-08-02T08:50:00,3,20867013,187642
OK,94,27,837,94,2014-08-02T08:55:00,1,20867462,187642
OK,120,21,837,120,2014-08-02T09:00:00,2,20867911,187642
OK,95,27,837,95,2014-08-02T09:05:00,3,20868360,187642
OK,95,27,837,95,2014-08-02T09:10:00,3,20868809,187642
OK,183,14,837,183,2014-08-02T09:15:00,0,20869258,187642
OK,119,22,837,119,2014-08-02T09:20:00,2,20869707,187642
OK,131,20,837,131,2014-08-02T09:25:00,3,20870156,187642
OK,92,28,837,92,2014-08-02T09:30:00,4,20870605,187642
OK,92,28,837,92,2014-08-02T09:35:00,4,20871054,187642
OK,150,17,837,150,2014-08-02T09:40:00,3,20871503,187642
OK,124,21,837,124,2014-08-02T09:45:00,2,20871952,187642
OK,150,17,837,150,2014-08-02T09:50:00,0,20872401,187642
OK,150,17,837,150,2014-08-02T09:55:00,0,20872850,187642
OK,87,30,837,87,2014-08-02T10:00:00,1,20873299,187642
OK,87,30,837,87,2014-08-02T10:05:00,1,20873748,187642
OK,145,18,837,145,2014-08-02T10:10:00,1,20874197,187642
OK,155,16,837,155,2014-08-02T10:15:00,3,20874646,187642
OK,142,18,837,142,2014-08-02T10:20:00,4,20875095,187642
OK,117,22,837,117,2014-08-02T10:25:00,2,20875544,187642
OK,111,23,837,111,2014-08-02T10:30:00,2,20875993,187642
OK,79,33,837,79,2014-08-02T10:35:00,0,20876442,187642
OK,108,24,837,108,2014-08-02T10:40:00,3,20876891,187642
OK,108,24,837,108,2014-08-02T10:45:00,5,20877340,187642
OK,115,22,837,115,2014-08-02T10:50:00,3,20877789,187642
OK,122,21,837,122,2014-08-02T10:55:00,0,20878238,187642
OK,122,21,837,122,2014-08-02T11:00:00,0,20878687,187642
OK,60,43,837,60,2014-08-02T11:05:00,3,20879136,187642
OK,63,41,837,63,2014-08-02T11:10:00,5,20879585,187642
OK,143,18,837,143,2014-08-02T11:15:00,2,20880034,187642
OK,143,18,837,143,2014-08-02T11:20:00,0,20880483,187642
OK,143,18,837,143,2014-08-02T11:25:00,0,20880932,187642
OK,143,18,837,143,2014-08-02T11:30:00,0,20881381,187642
OK,143,18,837,143,2014-08-02T11:35:00,0,20881830,187642
OK,126,20,837,126,2014-08-02T11:40:00,1,20882279,187642
OK,110,23,837,110,2014-08-02T11:45:00,2,20882728,187642
OK,94,27,837,94,2014-08-02T11:50:00,0,20883177,187642
OK,97,27,837,97,2014-08-02T11:55:00,2,20883626,187642
OK,97,27,837,97,2014-08-02T12:00:00,2,20884075,187642
OK,55,47,837,55,2014-08-02T12:05:00,1,20884524,187642
OK,144,18,837,144,2014-08-02T12:10:00,3,20884973,187642
OK,156,16,837,156,2014-08-02T12:15:00,3,20885422,187642
OK,156,16,837,156,2014-08-02T12:20:00,3,20885871,187642
OK,133,19,837,133,2014-08-02T12:25:00,3,20886320,187642
OK,86,30,837,86,2014-08-02T12:30:00,0,20886769,187642
OK,79,33,837,79,2014-08-02T12:35:00,1,20887218,187642
OK,111,23,837,111,2014-08-02T12:40:00,2,20887667,187642
OK,144,18,837,144,2014-08-02T12:45:00,1,20888116,187642
OK,144,18,837,144,2014-08-02T12:50:00,0,20888565,187642
OK,144,18,837,144,2014-08-02T12:55:00,0,20889014,187642
OK,144,18,837,144,2014-08-02T13:00:00,0,20889463,187642
OK,144,18,837,144,2014-08-02T13:05:00,0,20889912,187642
OK,144,18,837,144,2014-08-02T13:10:00,0,20890361,187642
OK,144,18,837,144,2014-08-02T13:15:00,0,20890810,187642
OK,92,28,837,92,2014-08-02T13:20:00,1,20891259,187642
OK,92,28,837,92,2014-08-02T13:25:00,1,20891708,187642
OK,92,28,837,92,2014-08-02T13:30:00,0,20892157,187642
OK,92,28,837,92,2014-08-02T13:35:00,0,20892606,187642
OK,145,18,837,145,2014-08-02T13:40:00,1,20893055,187642
OK,116,22,837,116,2014-08-02T13:45:00,1,20893504,187642
OK,116,22,837,116,2014-08-02T13:50:00,1,20893953,187642
OK,57,46,837,57,2014-08-02T13:55:00,1,20894402,187642
OK,57,46,837,57,2014-08-02T14:00:00,0,20894851,187642
OK,57,46,837,57,2014-08-02T14:05:00,0,20895300,187642
OK,57,46,837,57,2014-08-02T14:10:00,0,20895749,187642
OK,134,19,837,134,2014-08-02T14:15:00,1,20896198,187642
OK,134,19,837,134,2014-08-02T14:20:00,0,20896647,187642
OK,134,19,837,134,2014-08-02T14:25:00,0,20897096,187642
OK,77,34,837,77,2014-08-02T14:30:00,1,20897545,187642
OK,77,34,837,77,2014-08-02T14:35:00,0,20897994,187642
OK,77,34,837,77,2014-08-02T14:40:00,0,20898443,187642
OK,131,20,837,131,2014-08-02T14:45:00,1,20898892,187642
OK,131,20,837,131,2014-08-02T14:50:00,1,20899341,187642
OK,100,26,837,100,2014-08-02T14:55:00,1,20899790,187642
OK,79,33,837,79,2014-08-02T15:00:00,2,20900239,187642
OK,63,41,837,63,2014-08-02T15:05:00,2,20900688,187642
OK,139,18,837,139,2014-08-02T15:10:00,2,20901137,187642
OK,136,19,837,136,2014-08-02T15:15:00,4,20901586,187642
OK,135,19,837,135,2014-08-02T15:20:00,1,20902035,187642
OK,135,19,837,135,2014-08-02T15:25:00,0,20902484,187642
OK,103,25,837,103,2014-08-02T15:30:00,1,20902933,187642
OK,103,25,837,103,2014-08-02T15:35:00,1,20903382,187642
OK,103,25,837,103,2014-08-02T15:40:00,0,20903831,187642
OK,123,21,837,123,2014-08-02T15:45:00,1,20904280,187642
OK,123,21,837,123,2014-08-02T15:50:00,1,20904729,187642
OK,123,21,837,123,2014-08-02T15:55:00,0,20905178,187642
OK,100,26,837,100,2014-08-02T16:00:00,1,20905627,187642
OK,100,26,837,100,2014-08-02T16:05:00,1,20906076,187642
OK,100,26,837,100,2014-08-02T16:10:00,0,20906525,187642
OK,81,32,837,81,2014-08-02T16:15:00,1,20906974,187642
OK,81,32,837,81,2014-08-02T16:20:00,1,20907423,187642
OK,81,32,837,81,2014-08-02T16:25:00,0,20907872,187642
OK,81,32,837,81,2014-08-02T16:30:00,0,20908321,187642
OK,128,20,837,128,2014-08-02T16:35:00,1,20908770,187642
OK,140,18,837,140,2014-08-02T16:40:00,1,20909219,187642
OK,129,20,837,129,2014-08-02T16:45:00,2,20909668,187642
OK,119,22,837,119,2014-08-02T16:50:00,1,20910117,187642
OK,119,22,837,119,2014-08-02T16:55:00,0,20910566,187642
OK,119,22,837,119,2014-08-02T17:00:00,0,20911015,187642
OK,110,23,837,110,2014-08-02T17:05:00,2,20911464,187642
OK,112,23,837,112,2014-08-02T17:10:00,3,20911913,187642
OK,112,23,837,112,2014-08-02T17:15:00,1,20912362,187642
OK,123,21,837,123,2014-08-02T17:20:00,3,20912811,187642
OK,123,21,837,123,2014-08-02T17:25:00,3,20913260,187642
OK,83,31,837,83,2014-08-02T17:30:00,1,20913709,187642
OK,104,25,837,104,2014-08-02T17:35:00,1,20914158,187642
OK,104,25,837,104,2014-08-02T17:40:00,0,20914607,187642
OK,74,35,837,74,2014-08-02T17:45:00,1,20915056,187642
OK,74,35,837,74,2014-08-02T17:50:00,1,20915505,187642
OK,91,28,837,91,2014-08-02T17:55:00,1,20915954,187642
OK,91,28,837,91,2014-08-02T18:00:00,0,20916403,187642
OK,150,17,837,150,2014-08-02T18:05:00,1,20916852,187642
OK,125,21,837,125,2014-08-02T18:10:00,2,20917301,187642
OK,101,26,837,101,2014-08-02T18:15:00,1,20917750,187642
OK,108,24,837,108,2014-08-02T18:20:00,1,20918199,187642
OK,108,24,837,108,2014-08-02T18:25:00,0,20918648,187642
OK,108,24,837,108,2014-08-02T18:30:00,0,20919097,187642
OK,108,24,837,108,2014-08-02T18:35:00,0,20919546,187642
OK,108,24,837,108,2014-08-02T18:40:00,0,20919995,187642
OK,108,24,837,108,2014-08-02T18:45:00,0,20920444,187642
OK,72,36,837,72,2014-08-02T18:50:00,1,20920893,187642
OK,72,36,837,72,2014-08-02T18:55:00,1,20921342,187642
OK,72,36,837,72,2014-08-02T19:00:00,0,20921791,187642
OK,72,36,837,72,2014-08-02T19:05:00,0,20922240,187642
OK,154,17,837,154,2014-08-02T19:10:00,2,20922689,187642
OK,154,17,837,154,2014-08-02T19:15:00,2,20923138,187642
OK,154,17,837,154,2014-08-02T19:20:00,0,20923587,187642
OK,154,17,837,154,2014-08-02T19:25:00,0,20924036,187642
OK,116,22,837,116,2014-08-02T19:30:00,1,20924485,187642
OK,98,26,837,98,2014-08-02T19:35:00,2,20924934,187642
OK,88,29,837,88,2014-08-02T19:40:00,2,20925383,187642
OK,97,27,837,97,2014-08-02T19:45:00,1,20925832,187642
OK,97,27,837,97,2014-08-02T19:50:00,0,20926281,187642
OK,97,27,837,97,2014-08-02T19:55:00,0,20926730,187642
OK,97,27,837,97,2014-08-02T20:00:00,0,20927179,187642
OK,97,27,837,97,2014-08-02T20:05:00,0,20927628,187642
OK,97,27,837,97,2014-08-02T20:10:00,0,20928077,187642
OK,97,27,837,97,2014-08-02T20:15:00,0,20928526,187642
OK,97,27,837,97,2014-08-02T20:20:00,0,20928975,187642
OK,97,27,837,97,2014-08-02T20:25:00,0,20929424,187642
OK,97,27,837,97,2014-08-02T20:30:00,0,20929873,187642
OK,107,24,837,107,2014-08-02T20:35:00,1,20930322,187642
OK,107,24,837,107,2014-08-02T20:40:00,0,20930771,187642
OK,79,33,837,79,2014-08-02T20:45:00,1,20931220,187642
OK,79,33,837,79,2014-08-02T20:50:00,0,20931669,187642
OK,79,33,837,79,2014-08-02T20:55:00,0,20932118,187642
OK,79,33,837,79,2014-08-02T21:00:00,0,20932567,187642
OK,76,34,837,76,2014-08-02T21:05:00,1,20933016,187642
OK,76,34,837,76,2014-08-02T21:10:00,1,20933465,187642
OK,76,34,837,76,2014-08-02T21:15:00,0,20933914,187642
OK,159,16,837,159,2014-08-02T21:20:00,2,20934363,187642
OK,163,16,837,163,2014-08-02T21:25:00,2,20934812,187642
OK,126,20,837,126,2014-08-02T21:30:00,2,20935261,187642
OK,91,28,837,91,2014-08-02T21:35:00,1,20935710,187642
OK,91,28,837,91,2014-08-02T21:40:00,0,20936159,187642
OK,91,28,837,91,2014-08-02T21:45:00,0,20936608,187642
OK,91,28,837,91,2014-08-02T21:50:00,0,20937057,187642
OK,91,28,837,91,2014-08-02T21:55:00,0,20937506,187642
OK,91,28,837,91,2014-08-02T22:00:00,0,20937955,187642
OK,91,28,837,91,2014-08-02T22:05:00,0,20938404,187642
OK,91,28,837,91,2014-08-02T22:10:00,0,20938853,187642
OK,91,28,837,91,2014-08-02T22:15:00,0,20939302,187642
OK,91,28,837,91,2014-08-02T22:20:00,0,20939751,187642
OK,91,28,837,91,2014-08-02T22:25:00,0,20940200,187642
OK,63,41,837,63,2014-08-02T22:30:00,1,20940649,187642
OK,63,41,837,63,2014-08-02T22:35:00,1,20941098,187642
OK,63,41,837,63,2014-08-02T22:40:00,0,20941547,187642
OK,99,26,837,99,2014-08-02T22:45:00,1,20941996,187642
OK,99,26,837,99,2014-08-02T22:50:00,1,20942445,187642
OK,138,19,837,138,2014-08-02T22:55:00,1,20942894,187642
OK,138,19,837,138,2014-08-02T23:00:00,0,20943343,187642
OK,138,19,837,138,2014-08-02T23:10:00,0,20943792,187642
OK,138,19,837,138,2014-08-02T23:15:00,0,20944241,187642
OK,134,19,837,134,2014-08-02T23:20:00,1,20944690,187642
OK,134,19,837,134,2014-08-02T23:25:00,1,20945139,187642
OK,134,19,837,134,2014-08-02T23:30:00,0,20945588,187642
OK,134,19,837,134,2014-08-02T23:35:00,0,20946037,187642
OK,134,19,837,134,2014-08-02T23:40:00,0,20946486,187642
OK,75,35,837,75,2014-08-02T23:45:00,1,20946935,187642
OK,75,35,837,75,2014-08-02T23:50:00,0,20947384,187642
OK,75,35,837,75,2014-08-02T23:55:00,0,20947833,187642
OK,75,35,837,75,2014-08-03T00:00:00,0,20948282,187642
OK,75,35,837,75,2014-08-03T00:05:00,0,20948731,187642
OK,91,28,837,91,2014-08-03T00:10:00,1,20949179,187642
OK,91,28,837,91,2014-08-03T00:15:00,1,20949628,187642
OK,122,21,837,122,2014-08-03T00:20:00,1,20950077,187642
OK,122,21,837,122,2014-08-03T00:25:00,1,20950526,187642
OK,122,21,837,122,2014-08-03T00:30:00,0,20950975,187642
OK,122,21,837,122,2014-08-03T00:35:00,0,20951424,187642
OK,122,21,837,122,2014-08-03T00:40:00,0,20951873,187642
OK,122,21,837,122,2014-08-03T00:45:00,0,20952322,187642
OK,122,21,837,122,2014-08-03T00:50:00,0,20952771,187642
OK,122,21,837,122,2014-08-03T00:55:00,0,20953220,187642
OK,122,21,837,122,2014-08-03T01:00:00,0,20953669,187642